Weather History for KABI - January, 2011

Change the Weather History Date:

Friday, January 7, 2011

  Actual Average Record
Temperature  
Mean Temperature 49 °F 44 °F  
Max Temperature 66 °F 56 °F 78 °F (2006)
Min Temperature 32 °F 33 °F 3 °F (1912)
Degree Days  
Heating Degree Days 16 21  
Month to date heating degree days 154 147  
Since 1 July heating degree days 974 1192  
Cooling Degree Days 0 0  
Month to date cooling degree days 0 0  
Year to date cooling degree days 0 0  
Moisture  
Dew Point 24 °F    
Average Humidity 42    
Maximum Humidity 64    
Minimum Humidity 20    
Precipitation  
Precipitation 0.00 in 0.03 in 1.92 in (1961)
Month to date precipitation 0.00 0.21  
Year to date precipitation 0.00 0.21  
Sea Level Pressure  
Sea Level Pressure 29.89 in    
Wind  
Wind Speed 6 mph (West)    
Max Wind Speed 14 mph    
Max Gust Speed 17 mph    
Visibility 10 miles    
Events      
T = Trace of Precipitation, MM = Missing Value Source: NWS Daily Summary

Daily Weather History Graph

Daily Weather History Graph

Search for Another Location

Airport or City:

Trip Planner

Search our weather history database for the weather conditions in past years. The results will help you decide how hot, cold, wet, or windy it might be!

Date:

Astronomy

Jan. 07, 2011 Rise Set
Actual Time 7:41 AM CST 5:49 PM CST
Civil Twilight 7:14 AM CST 6:15 PM CST
Nautical Twilight 6:43 AM CST 6:46 PM CST
Astronomical Twilight 6:13 AM CST 7:16 PM CST
Moon 9:37 AM CST (1/7) 9:12 PM CST (1/7)
Length of Visible Light 11h 01m
Length of Day
10h 07m
Waxing Crescent, 11% of the Moon is Illuminated
Jan 7
Waxing Crescent
Jan 12
First Quarter
Jan 19
Full
Jan 26
Last Quarter
Feb 2
New

Hourly Weather History & Observations

Time (CST) Temp. Windchill Dew Point Humidity Pressure Visibility Wind Dir Wind Speed Gust Speed Precip Events Conditions
12:52 AM 39.9 °F 35.1 °F 23.0 °F 51% 29.97 in 10.0 mi SSW 6.9 mph - N/A   Clear
1:52 AM 39.9 °F 33.9 °F 24.1 °F 53% 29.96 in 10.0 mi SSW 9.2 mph - N/A   Clear
2:52 AM 37.9 °F 32.7 °F 23.0 °F 55% 29.94 in 10.0 mi South 6.9 mph - N/A   Clear
3:52 AM 39.0 °F 35.7 °F 23.0 °F 53% 29.93 in 10.0 mi South 4.6 mph - N/A   Clear
4:52 AM 39.0 °F 33.4 °F 21.9 °F 50% 29.92 in 10.0 mi SSW 8.1 mph - N/A   Clear
5:52 AM 39.9 °F 37.8 °F 21.9 °F 49% 29.90 in 10.0 mi South 3.5 mph - N/A   Clear
6:52 AM 35.1 °F 27.9 °F 23.0 °F 61% 29.91 in 10.0 mi SSW 9.2 mph - N/A   Clear
7:52 AM 34.0 °F 26.6 °F 23.0 °F 64% 29.91 in 10.0 mi South 9.2 mph - N/A   Clear
8:52 AM 39.0 °F 34.8 °F 25.0 °F 57% 29.91 in 10.0 mi SSW 5.8 mph - N/A   Clear
9:52 AM 48.9 °F - 24.1 °F 38% 29.90 in 10.0 mi SSW 3.5 mph - N/A   Clear
10:52 AM 55.0 °F - 21.9 °F 28% 29.90 in 10.0 mi WNW 4.6 mph - N/A   Clear
11:52 AM 59.0 °F - 21.9 °F 24% 29.87 in 10.0 mi NW 3.5 mph - N/A   Clear
12:52 PM 63.0 °F - 23.0 °F 22% 29.83 in 9.0 mi West 5.8 mph - N/A   Clear
12:56 PM 62.6 °F - 23.0 °F 22% 29.85 in 10.0 mi NNW 5.8 mph - N/A   Clear
1:52 PM 64.9 °F - 24.1 °F 21% 29.80 in 10.0 mi North 8.1 mph - N/A   Clear
2:52 PM 63.0 °F - 21.0 °F 20% 29.81 in 10.0 mi North 10.4 mph - N/A   Clear
3:52 PM 61.0 °F - 25.0 °F 25% 29.81 in 10.0 mi North 11.5 mph - N/A   Clear
4:52 PM 59.0 °F - 25.0 °F 27% 29.84 in 10.0 mi North 12.7 mph - N/A   Clear
5:52 PM 55.0 °F - 26.1 °F 33% 29.86 in 10.0 mi North 5.8 mph - N/A   Clear
6:52 PM 51.1 °F - 26.1 °F 38% 29.90 in 10.0 mi Calm Calm - N/A   Clear
7:52 PM 50.0 °F - 25.0 °F 38% 29.91 in 10.0 mi NE 3.5 mph - N/A   Clear
8:52 PM 42.1 °F - 26.1 °F 53% 29.93 in 10.0 mi Calm Calm - N/A   Clear
9:52 PM 44.1 °F 42.5 °F 27.0 °F 51% 29.93 in 10.0 mi WNW 3.5 mph - N/A   Clear
10:52 PM 39.0 °F - 26.1 °F 60% 29.94 in 10.0 mi Calm Calm - N/A   Clear
11:52 PM 37.9 °F - 25.0 °F 60% 29.93 in 10.0 mi Calm Calm - N/A   Clear